GFSWCAN_prec_radar_126.txt.gz
Reflectivity
25 16 18 14 22 25 17 -15 13 2 -11 -0 5 -20 -20 -20 -20 -20 -20 -20 -20 -20 -20 -20 -20 -20 -20 -20 -20 -20 -20 -20 -20 -20 -20 -20 -20 -20 -20 -20 -3 -20 -13 -20 -20 -20 -20 -20 -20 -17 9 9 -20 -20
27 26 14 5 23 18 15 16 2 5 5 -20 -20 -20 -20 -20 -20 -20 -20 -20 -20 -20 -20 -20 -20 -20 -20 -20 -20 -20 -20 -20 -20 -20 -20 -20 -20 -20 -20 -20 -20 -20 -20 -20 -18 -20 -20 -5 2 7 5 4 -3 -20
20 31 14 7 5 27 17 13 11 9 -13 -20 -20 -20 -20 -20 -20 -20 -20 -20 -20 -20 -20 -20 -20 -20 -20 -20 -20 -20 -20 -20 -20 -20 -20 -20 -20 -20 -20 -20 -20 -20 -20 -20 -20 -7 -20 -20 -20 -20 0 -4 -20 -17
35 14 13 4 20 24 12 2 17 9 4 -18 -20 -20 -20 -20 -20 -20 -20 -20 -20 -20 -20 -20 -20 -20 -20 -20 -20 -20 -20 -20 -20 -20 -20 -20 -20 -20 -20 -20 -20 -20 -20 -20 -20 -20 -19 -20 -17 -20 -20 -20 -20 -20
38 18 11 8 9 20 18 17 14 11 -17 -5 -20 -20 -20 -20 -20 -20 -20 -20 -20 -20 -20 -20 -20 -20 -20 -20 -20 -20 -20 -20 -20 -20 -20 -20 -20 -20 -20 -20 -20 -20 -20 -20 -20 -20 -20 -20 -2 -5 -20 -20 -20 -20
35 36 21 20 10 15 4 8 11 -10 -19 -20 -20 -20 -20 -20 -20 -20 -20 -20 -20 -20 -20 -20 -20 -20 -20 -20 -20 -20 -20 -20 -20 -20 -20 -20 -20 -20 -20 -20 -20 -20 -19 -19 -20 -20 -20 -20 -20 -20 -15 -18 -20 -20
16 17 12 17 26 14 -19 -20 -8 -15 -11 -15 -20 -20 -20 -20 -20 -20 -20 -10 -20 -20 -20 -20 -20 -20 -20 -20 -20 -20 -20 -20 -20 -20 -20 -20 -20 -20 -20 -20 -20 -20 -20 -20 -15 -16 -20 -20 -20 -12 -20 -20 -20 -20
-20 10 23 18 26 23 6 -20 -20 -20 -20 -20 -20 -18 -20 -20 -20 -20 -20 -3 -14 -20 -20 -20 -20 -20 -20 -20 -17 -20 -20 -6 -20 -20 -20 -20 -20 -20 -20 -20 -20 -20 -20 -20 -20 -20 -20 -20 -20 -20 -20 -20 -20 -20
-20 7 11 18 25 26 8 -20 -20 -20 0 4 -20 -20 -20 -20 -20 -15 6 -3 -20 -20 -20 -20 -20 -20 -20 -20 -20 -20 -20 -20 -20 -20 -20 -20 -20 -16 -20 -11 -20 -20 -17 -20 -20 -20 -20 -20 -20 -20 -20 -20 -20 -20
-19 16 24 26 28 27 8 -20 -20 -20 -20 -20 -20 -20 -20 -20 -20 9 0 -20 -20 -20 -20 -20 -20 -8 -20 -20 -20 -20 -20 -20 -20 -20 -20 -20 -19 -20 -20 -20 -20 -20 -20 -19 -20 -20 -20 -20 -20 -20 -20 -20 -20 -20
-20 5 14 29 35 31 14 -17 0 -16 -20 -20 -20 -20 -20 -12 -20 -20 -20 -20 -20 -20 -20 -20 -20 -20 -20 -20 -20 -20 -20 -20 -20 -20 -20 -20 -20 -20 -20 -20 -20 -20 -20 -20 -20 -20 -20 -20 -20 -20 -20 -20 -20 -20
-20 -20 14 22 36 31 13 -14 -20 -20 -20 -20 -20 -20 -20 -20 -20 -20 -20 -20 -20 -20 -20 -20 -20 -20 -20 -20 -20 -20 -20 -20 -0 -20 -10 -20 -20 -20 -20 -20 -20 -20 -20 -20 -20 -20 -20 -20 -20 -20 -20 -20 -20 -20
-20 -20 -2 36 31 24 -14 -20 -20 -20 -20 -20 -20 -20 -20 -20 -20 -20 -20 -20 -20 -20 -20 -20 -20 -20 -4 -20 -20 -20 -20 -20 -20 -20 -20 -20 -20 -20 -20 -20 -20 -20 -20 -20 -20 -20 -20 -20 -20 -20 -20 -20 -20 -20
-10 -20 -19 35 31 24 10 -20 -20 -20 -20 -20 -20 -20 -20 -20 -20 -20 -20 -20 -20 -20 -20 -20 -20 -20 -20 -20 -20 -20 -20 -20 -18 -1 -20 -20 -20 -20 -20 -20 -20 -20 -20 -20 -20 -20 -20 -20 -20 -20 -20 -20 -20 -20
-14 -18 7 11 31 21 -20 -20 -20 -20 -20 -20 -20 -20 -20 -20 -20 -20 -20 -20 -20 -20 -20 -20 -20 -20 -20 -20 -20 -20 -15 -20 -20 -20 -20 -20 -20 -20 -20 -20 -20 -20 -20 -20 -20 -20 -20 -20 -20 -20 -20 -20 -20 -20
-1 10 28 13 28 39 23 -20 -20 -20 -20 -20 -20 -20 -20 -20 -20 -20 -20 -20 -20 -20 -14 -20 -6 -20 -20 -20 -18 -20 -20 -20 -20 -20 -20 -20 -20 -20 -20 -20 -20 -20 -20 -20 -20 -20 -20 -20 -20 -20 -20 -20 -20 -20
-20 -20 12 23 36 38 29 -7 -20 -20 -20 -20 -20 -20 -20 -20 -20 -20 -20 -16 -2 -20 8 8 -20 -20 -20 -20 -20 -20 -20 -20 -20 -20 -20 -20 -20 -20 -20 -20 -20 -20 -20 -20 -20 -20 -20 -20 -20 -20 -20 -20 -20 -20
-20 -20 -20 17 31 19 -16 -20 -20 -20 -20 -20 -20 -20 -20 -19 -7 -2 -20 -18 -11 -16 20 -17 -20 -20 -20 -20 -20 -20 -20 -20 -20 -20 -20 -20 -20 -20 -20 -20 -20 -20 -20 -20 -20 -20 -20 -20 -20 -20 -20 -20 -20 -20
-20 -20 -20 -17 -12 21 -1 -20 -20 -20 -20 -20 -20 -20 -20 0 -4 -20 -20 -18 -19 15 10 -20 -20 -20 -20 -20 -20 -20 -20 -20 -20 -20 -20 -20 -20 -20 -20 -20 -20 -20 -20 -20 -20 -20 -20 -20 -20 -20 -20 -20 -20 -20
2 -20 -9 -11 -20 -20 -20 -20 -20 -20 -20 -20 -20 -20 -20 -17 -19 -20 -20 -20 6 -3 9 -4 -20 -20 -20 -20 -20 -20 -20 -20 -20 -20 -20 -20 -20 -20 -20 -20 -20 -20 -20 -20 -20 -20 -20 -20 -20 -20 -20 -20 -20 -20
3 6 16 -20 -20 -7 -20 -20 -20 -20 -20 -20 -20 -20 -20 -20 -20 -20 -20 -20 -20 -20 15 -11 -20 -20 -20 -20 -20 -20 -20 -20 -20 -20 -20 -20 -20 -20 -20 -20 -20 -20 -20 -20 -20 -20 -20 -20 -20 -20 -20 -20 -20 -20
-8 -20 -20 -19 -11 -17 -8 -20 -20 -20 -20 -20 -20 -20 -20 -20 -20 -20 -20 -20 -20 -20 -20 -20 -20 -20 -20 -20 -20 -20 -20 -20 -20 -20 -20 -20 -20 -20 -20 -20 -20 -20 -20 -20 -20 -20 -20 -20 -20 -20 -20 -20 -20 -20
-20 -20 -20 -20 -20 -20 -20 -20 -20 -20 -20 -20 -20 -20 -20 -20 -20 -20 -20 -20 -20 -20 -20 -20 -20 -20 -20 -20 -20 -20 -20 -20 -20 -20 -20 -20 -20 -20 -20 -20 -20 -20 -20 -20 -20 -20 -20 -20 -20 -20 -20 -20 -20 -20
-20 -20 -20 -20 -20 -20 -20 -20 -20 -20 -20 -20 -17 -18 -20 -20 -20 -20 -20 -20 -20 -20 -20 -20 -20 -20 -20 -20 -20 -20 -20 -20 -20 -20 -20 -20 -20 -20 -20 -20 -20 -20 -20 -20 -20 -20 -20 -20 -20 -20 -20 -20 -20 -20
-20 -20 -20 -20 -20 -20 -20 -20 -20 -20 -20 -20 -20 -20 -20 -20 -20 -20 -20 -20 -20 -20 -20 -20 -20 -20 -20 -20 -20 -20 -20 -20 -20 -20 -20 -20 -20 -20 -20 -20 -20 -20 -20 -20 -20 -20 -20 -20 -20 -20 -20 -20 -20 -20
-20 -20 -20 -20 -20 -20 -20 -20 -20 -20 -20 -20 -20 -20 -20 -20 -20 -20 -20 -20 -20 -20 -20 -20 -20 -20 -20 -20 -20 -20 -20 -20 -20 -20 -20 -20 -20 -20 -20 -20 -20 -20 -20 -20 -20 -20 -20 -20 -20 -20 -20 -20 -20 -20
-20 -20 -18 -20 5 5 -17 -20 -20 -20 -20 -20 -20 -20 -20 -20 -20 -20 -20 -20 -20 -20 -20 -20 -19 -20 -20 -20 -20 -20 -20 -20 -20 -20 -20 -20 -20 -20 -20 -20 -20 -20 -20 -20 -20 -20 -20 -20 -20 -20 -20 -20 -20 -20
-20 -20 -20 -5 -0 4 13 -1 -20 -20 -20 -20 -20 -20 -20 -20 -20 -20 -20 -20 -20 -20 -20 -20 -20 -20 -20 -20 -20 -20 -20 -20 -20 -20 -20 -20 -20 -20 -20 -20 -20 -20 -20 -20 -20 -20 -20 -20 -20 -20 -20 -20 -20 -20
2 -2 -20 -20 -20 -20 -20 -20 -20 -20 -20 -20 -20 -20 -20 -20 -20 -20 -20 -20 -20 -20 -20 -19 -20 -20 -20 -20 -20 -20 -20 -20 -20 -20 -20 -20 -20 -20 -20 -20 -20 -20 -20 -20 -20 -20 -20 -20 -20 -20 -20 -20 -20 -20
-20 -20 -20 -20 -20 -20 -20 -20 -20 -20 -20 -20 -20 -20 -20 -20 -20 -20 -20 -20 -20 -20 -20 -20 -15 -18 -20 -20 -20 -20 -20 -20 -20 -20 -20 -20 -20 -20 -20 -20 -20 -20 -20 -20 -20 -20 -20 -20 -20 -20 -20 -20 -20 -20
-20 -18 3 -18 -20 -20 -20 -20 -20 -20 -20 -20 -20 -20 -20 -20 -20 -20 -20 -20 -20 -20 -20 -20 -20 -20 -16 1 -5 -19 -20 -20 -20 -20 -20 -20 -20 -20 -20 -20 -20 -20 -20 -20 -20 -20 -20 -20 -20 -20 -20 -20 -20 -20
-0 8 4 -5 -18 -18 -20 -20 -20 -20 -20 -20 -20 -20 -20 -20 -20 -20 -20 -20 -20 -20 -20 -20 -20 -20 -20 -18 -16 -12 -14 -19 -20 -20 -20 -20 -20 -20 -20 -20 -20 -20 -20 -20 -20 -20 -20 -20 -20 -20 -20 -20 -20 -20
-20 -20 -20 -20 -20 -10 2 -7 -20 -20 -20 -20 -20 -20 -20 -20 -20 -20 -20 -20 -20 -20 -20 -19 -19 -19 -18 -18 -18 -18 -20 -20 -20 -20 -20 -20 -20 -20 -20 -20 -20 -20 -20 -20 -20 -20 -20 -20 -20 -20 -20 -20 -20 -20

GFSWCAN_prec_radar_129.txt.gz
Reflectivity
30 24 18 9 16 18 18 21 16 -13 -11 -20 -16 -16 -20 -19 -20 -20 -20 -20 -20 -20 -20 -20 -20 -20 -20 -20 -20 -20 -20 -20 -20 -20 -20 -20 -20 -20 -20 -20 -20 -20 -20 -20 -20 -20 -20 -20 -20 -20 0 12 -2 -0
34 21 17 14 10 21 19 19 22 -20 -10 -20 -20 -20 -20 -20 -20 -20 -20 -20 -20 -20 -20 -20 -20 -20 -20 -20 -20 -20 -20 -20 -20 -20 -20 -20 -20 -20 -20 -14 -20 -6 -20 -20 -19 -20 -4 -9 -20 -10 -3 -3 -17 -20
27 21 18 17 17 22 16 20 19 3 -2 13 -1 -16 -20 -20 -20 -20 -20 -20 -20 -20 -20 -20 -20 -20 -20 -20 -20 -20 -20 -20 -20 -20 -20 -20 -20 -20 -20 -20 -20 -9 -20 -19 -20 -16 -20 -20 -20 -20 -12 -20 -20 -20
39 14 6 6 10 7 12 17 15 -10 7 -4 -3 -19 -20 -20 -20 -20 -20 -20 -20 -20 -20 -20 -20 -20 -20 -20 -20 -20 -20 -20 -20 -20 -20 -20 -20 -20 -20 -20 -20 -20 -20 -20 -14 -11 -20 -20 -20 -20 -2 -9 -13 -20
35 30 0 9 16 21 14 24 17 5 -8 -5 7 -20 -20 -20 -20 -20 -20 -20 -20 -20 -20 -20 -20 -20 -20 -20 -20 -20 -20 -20 -20 -20 -20 -20 -20 -20 -20 -20 -20 -20 -20 -20 -20 -20 -20 -14 -14 -18 -12 -20 -20 -20
11 29 9 -5 13 29 27 27 6 12 13 10 -20 -20 -20 -20 -20 -20 -20 -20 -20 -20 -20 -20 -20 -20 -20 -20 -20 -20 -20 -20 -20 -20 -20 -20 -20 -20 -20 -20 -20 -20 -20 -20 -20 -20 -20 -20 -20 -20 -4 -20 -20 -20
26 19 -6 11 24 26 29 28 15 -19 17 -1 -20 -20 -20 -20 -20 -16 -20 -20 -20 -20 -20 -20 -20 -20 -20 -20 -20 -20 -20 -20 -20 -20 -20 -20 -20 -20 -20 -20 -20 -20 -20 -20 -20 -20 -20 -20 -20 -20 -20 -20 -20 -20
29 13 -4 11 18 23 20 12 4 12 -2 -20 -15 -20 -20 -20 -20 -20 -20 -20 -20 -20 -20 -20 -20 -5 -20 -20 -20 -20 9 9 -20 -20 -20 -20 -20 -20 -20 -20 -20 -20 -20 -20 -20 -20 -20 -20 -20 -20 -20 -20 -20 -20
37 22 26 24 22 25 11 -13 -2 14 -20 -20 -20 -20 -20 -20 -20 -1 -14 -20 -20 -20 -20 -20 -20 -20 -20 -20 -20 -20 -20 -20 -20 -20 -20 -20 -20 -20 -20 -20 -8 -20 -20 -20 -20 -20 -20 -20 -20 -20 -20 -20 -20 -20
11 12 14 23 20 2 -7 -19 8 -20 -20 -20 -20 -20 -20 -19 -20 -20 -20 -20 -20 -20 -20 -20 -20 -9 -20 -20 -20 -20 -20 -20 -20 -20 -20 -20 -19 -20 -20 -20 -20 -20 -20 -20 -20 -20 -20 -20 -20 -20 -20 -20 -20 -20
19 27 15 23 16 -20 -20 -20 -20 -20 -20 -20 -20 -19 -13 -13 -20 -20 -20 -20 -20 -20 -20 -20 -20 -13 -20 -20 -20 -20 -20 -7 -20 -20 -20 -20 -20 -20 -20 -20 -20 -20 -20 -20 -20 -20 -20 -20 -20 -20 -20 -20 -20 -20
20 23 26 26 16 -3 -20 -20 -20 -20 -20 -20 -20 8 -16 -20 -20 -20 -20 -20 -20 -20 -20 -20 -20 -20 -18 -20 -20 -20 -20 -17 -3 -20 -14 -20 -20 -20 -20 -20 -20 -20 -20 -20 -20 -20 -20 -20 -20 -20 -20 -20 -20 -20
29 32 29 26 13 -9 -20 -20 -20 -20 -20 -20 -20 -20 -20 -20 -20 -20 -20 -20 -20 -20 -20 -20 -20 -20 -17 -20 -20 -20 -20 -17 -20 -18 -20 -20 -20 -20 -20 -20 -20 -20 -20 -20 -20 -20 -20 -20 -20 -20 -20 -20 -20 -20
19 31 24 30 24 20 6 -20 -20 -20 -20 -20 -20 -20 -20 -20 -20 -20 -20 -20 -20 -20 -20 -20 -20 -20 -20 -20 -20 -20 -20 -20 -18 -20 -20 -20 -20 -20 -20 -20 -20 -20 -20 -20 -20 -20 -20 -20 -20 -20 -20 -20 -20 -20
12 25 37 33 30 19 -5 -20 -20 -20 -20 -20 -20 -20 -20 -20 -20 -20 -20 -20 -20 -20 -20 -20 -20 -20 -20 -20 -20 -20 -20 -20 -20 -20 -20 -20 -20 -20 -20 -20 -20 -20 -20 -20 -20 -20 -20 -20 -20 -20 -20 -20 -20 -20
-15 2 39 39 20 -20 -20 -20 -20 -20 -20 -20 -20 -20 -20 -20 -20 -20 -20 -20 -20 -20 -20 -9 -20 -20 -20 -20 -20 -20 -20 -20 -20 -20 -20 -20 -20 -20 -20 -20 -20 -20 -20 -20 -20 -20 -20 -20 -20 -20 -20 -20 -20 -20
-20 14 29 38 30 0 -20 -20 -20 -20 -20 -20 -20 -20 -20 -20 -20 -20 -18 -19 16 -20 -5 -18 -20 -20 -20 -20 -20 -20 -20 -20 -20 -20 -20 -20 -20 -20 -20 -20 -20 -20 -20 -20 -20 -20 -20 -20 -20 -20 -20 -20 -20 -20
-20 17 15 22 30 19 -14 -20 -20 -20 -20 -20 -20 -20 -20 -20 -20 -20 -20 -20 -20 -20 -9 13 -19 -20 -20 -20 -20 -20 -20 -20 -20 -20 -20 -20 -20 -20 -20 -20 -20 -20 -20 -20 -20 -20 -20 -20 -20 -20 -20 -20 -20 -20
-14 20 30 27 33 25 8 -20 -20 -20 -20 -20 -20 -20 -20 -20 -20 -20 -20 -20 -19 -15 -20 -20 -20 -20 -20 -20 -20 -20 -20 -20 -20 -20 -20 -20 -20 -20 -20 -20 -20 -20 -20 -20 -20 -20 -20 -20 -20 -20 -20 -20 -20 -20
2 18 15 6 12 12 -18 -20 -20 -20 -20 -20 -20 -20 -20 -20 -20 -20 -20 -20 -20 -19 -20 -20 -20 -20 -20 -20 -20 -20 -20 -20 -20 -20 -20 -20 -20 -20 -20 -20 -20 -20 -20 -20 -20 -20 -20 -20 -20 -20 -20 -20 -20 -20
-20 -6 -20 -20 -20 -20 -20 -20 -20 -20 -20 -20 -20 -20 -20 -20 -20 -20 -20 -20 -20 -20 -20 -20 -20 -20 -20 -20 -20 -20 -20 -20 -20 -20 -20 -20 -20 -20 -20 -20 -20 -20 -20 -20 -20 -20 -20 -20 -20 -20 -20 -20 -20 -20
-20 -20 -20 -20 -20 -20 -20 -20 -20 -20 -20 -20 -20 -20 -20 -20 -20 -20 -20 -20 -20 -20 -20 -20 -20 -20 -20 -20 -20 -20 -20 -20 -20 -20 -20 -20 -20 -20 -20 -20 -20 -20 -20 -20 -20 -20 -20 -20 -20 -20 -20 -20 -20 -20
-20 -20 -20 -20 -20 -20 -20 -12 -20 -20 -20 -20 -20 -20 -20 -20 -20 -20 -20 -20 -20 -20 -20 -20 -20 -20 -20 -20 -20 -20 -20 -20 -20 -20 -20 -20 -20 -20 -20 -20 -20 -20 -20 -20 -20 -20 -20 -20 -20 -20 -20 -20 -20 -20
-20 -20 -20 -20 -20 -20 -20 -20 -20 -20 -20 -20 -20 -20 -20 -20 -20 -20 -20 -20 -20 -20 -20 -20 -20 -20 -20 -20 -20 -20 -20 -20 -20 -20 -20 -20 -20 -20 -20 -20 -20 -20 -20 -20 -20 -20 -20 -20 -20 -20 -20 -20 -20 -20
-20 -20 -20 -20 -20 -20 -20 -20 -20 -20 -20 -20 -20 -20 -20 -20 -20 -20 -20 -20 -20 -20 -20 -20 -20 -20 -20 -20 -20 -20 -20 -20 -20 -20 -20 -20 -20 -20 -20 -20 -20 -20 -20 -20 -20 -20 -20 -20 -20 -20 -20 -20 -20 -20
-20 -20 -20 -20 -20 -20 -20 -20 -20 -20 -20 -20 -20 -20 -20 -20 -20 -20 -20 -20 -20 -20 -20 -20 -19 -20 -20 -20 -20 -20 -20 -20 -20 -20 -20 -20 -20 -20 -20 -20 -20 -20 -20 -20 -20 -20 -20 -20 -20 -20 -20 -20 -20 -20
-20 -20 -20 -20 8 10 5 -4 2 -17 -20 -20 -20 -20 -20 -20 -20 -20 -20 -20 -20 -20 -20 -20 -20 -20 -20 -20 -20 -20 -20 -20 -20 -20 -20 -20 -20 -20 -20 -20 -20 -20 -20 -20 -20 -20 -20 -20 -20 -20 -20 -20 -20 -20
-20 -20 -20 -20 -20 -19 3 -6 -20 -20 -20 -20 -20 -20 -20 -20 -20 -20 -20 -20 -20 -20 -20 -20 -20 -20 -20 -20 -20 -20 -20 -20 -20 -20 -20 -20 -20 -20 -20 -20 -20 -20 -20 -20 -20 -20 -20 -20 -20 -20 -20 -20 -20 -20
-20 -20 -20 -20 -20 -20 -20 -20 -20 -20 -20 -20 -20 -20 -20 -20 -20 -20 -20 -20 -20 -20 -20 -20 -20 -20 -20 -20 -20 -20 -20 -20 -20 -20 -20 -20 -20 -20 -20 -20 -20 -20 -20 -20 -20 -20 -20 -20 -20 -20 -20 -20 -20 -20
-20 -20 -20 -20 -20 -20 -20 -20 -20 -20 -20 -20 -20 -20 -20 -20 -20 -20 -20 -20 -20 -20 -20 -20 -20 -20 -20 -20 -20 -20 -20 -20 -20 -20 -20 -20 -20 -20 -20 -20 -20 -20 -20 -20 -20 -20 -20 -20 -20 -20 -20 -20 -20 -20
-20 -20 -20 -20 -20 -20 -20 -19 -20 -20 -20 -20 -20 -20 -20 -20 -20 -20 -20 -20 -20 -20 -20 -20 -20 -20 -20 -20 -20 -20 -20 -20 -20 -20 -20 -20 -20 -20 -20 -20 -20 -20 -20 -20 -20 -20 -20 -20 -20 -20 -20 -20 -20 -20
-20 -20 -20 -20 -20 -20 -20 -20 -20 -20 -20 -20 -20 -20 -20 -20 -20 -20 -20 -20 -20 -20 -20 -20 -20 -20 -20 -20 -20 -19 -18 -20 -20 -20 -20 -20 -20 -20 -20 -20 -20 -20 -20 -20 -20 -20 -20 -20 -20 -20 -20 -20 -20 -20
-15 -17 -20 -20 -20 -20 -20 -20 -20 -20 -20 -20 -20 -20 -20 -20 -20 -20 -20 -20 -20 -20 -20 -20 -20 -20 -19 -20 -19 -19 -20 -20 -20 -20 -20 -20 -20 -20 -20 -20 -20 -20 -20 -20 -20 -20 -20 -20 -20 -20 -20 -20 -20 -20

GFSWCAN_prec_radar_132.txt.gz
Reflectivity
23 16 14 16 -5 -10 9 17 -5 -11 -16 -18 -20 1 5 28 -13 -20 -20 -20 -20 -20 -20 -20 -20 -20 -20 -20 -20 -20 -20 -20 -20 -20 -20 -20 -20 -20 -20 -17 -10 -18 -9 -0 -20 -14 3 -20 -20 -17 -2 3 -14 -3
33 23 16 10 13 -18 9 14 -19 -20 -7 -1 -16 4 11 -20 -20 -20 -20 -20 -20 -20 -20 -20 -20 -20 -20 -20 -20 -20 -20 -20 -20 -20 -20 -20 -20 -20 -20 -0 -2 -3 -3 3 -4 4 -18 -20 -4 3 -4 -19 -9 -5
31 20 13 14 -3 -4 4 23 -3 -18 -20 -11 -17 -1 -12 -20 -20 -20 -20 -20 -20 -20 -20 -20 -20 -20 -20 -20 -20 -20 -20 -20 -20 -20 -20 -20 -20 -20 -20 3 0 -20 -20 -13 -16 -3 -20 -20 -20 -2 -6 -5 -18 -19
20 26 18 11 -7 10 2 29 3 -20 -20 -10 7 6 -7 -20 -20 -20 -20 -20 -20 -20 -20 -20 -20 -20 -20 -20 -20 -20 -20 -20 -20 -20 -20 -20 -20 -20 -20 -18 -20 -4 -16 -6 3 -0 -15 -20 -20 -13 -20 -20 -20 -20
16 34 11 4 -2 7 18 22 6 3 9 9 12 -14 -20 -20 -20 -20 -20 -20 -20 -20 -20 -20 -20 -20 -20 -20 -20 -20 -20 -20 -20 -20 -20 -20 -20 -20 -20 -20 -20 -20 -17 -6 -3 -20 -1 -1 -7 -20 -6 -20 -20 -20
25 16 -17 -19 -1 12 18 11 13 18 15 6 -17 -18 -20 -20 -20 -20 -7 -20 -20 -20 -20 -8 -20 -20 -20 -20 -20 -20 -20 -20 -20 -20 -20 -20 -20 -20 -20 -20 -20 -20 -4 -20 -18 -19 -20 -20 -20 -14 0 -20 -20 -20
31 -16 -13 -13 12 -16 20 -1 -15 -14 -20 -20 -20 -20 -20 -20 -20 -14 -15 -20 -20 -20 -20 -2 11 -20 -20 -20 -20 6 4 -9 -20 -20 -20 -20 -20 -20 -20 -20 -17 -18 -20 -20 -20 -20 -7 -14 -20 -8 -20 -20 -20 -20
36 26 -8 -8 15 16 26 14 24 12 -5 -20 -20 -20 -20 -20 -20 -20 -20 -20 -20 -20 -20 -9 10 12 -20 9 7 -20 7 -3 -17 0 -18 -20 -20 -20 -20 -20 -13 -12 -20 -20 -2 -20 -11 -20 -20 -14 -15 -20 -20 -20
18 -2 -13 -3 22 27 13 14 14 15 9 -20 -20 -20 -20 -20 -20 -18 -20 -20 -20 -20 -20 -20 -15 13 -13 -13 5 6 -14 -9 -16 -1 -2 -7 1 -20 -20 -20 -16 -20 -20 -20 -20 -20 -20 -20 -20 -20 -20 -20 -20 -20
14 -20 3 -9 15 13 9 11 1 -16 -20 -20 -20 -20 -20 -20 -20 -20 -20 -20 -20 -20 -20 -20 -20 8 7 9 -14 3 4 -10 -1 3 -0 -1 -18 -20 -20 -20 -20 -20 -20 -20 -20 -20 -20 -20 -20 -20 -20 -20 -20 -20
15 -11 -11 5 -9 -2 -20 6 -20 -20 -20 -17 -20 1 -20 -20 -20 -20 -20 -20 -20 -20 -20 -20 -7 -4 -20 4 -4 -19 -7 -3 -11 2 -10 -3 -9 -20 -20 -20 -20 -20 -20 -20 -20 -20 -20 -20 -20 -20 -20 -20 -20 -20
15 23 12 7 6 -20 -20 -20 -20 -20 -20 -17 -7 -13 -19 -20 -20 -20 -20 -20 -20 -20 -20 1 5 8 -12 -20 3 -7 -20 2 0 -11 -1 -8 -20 -20 -20 -20 -20 -20 -20 -20 -20 -20 -20 -20 -20 -20 -20 -20 -20 -20
22 13 12 -20 -16 -12 -20 -20 -20 -20 -20 -20 -20 -20 -20 -20 -20 -20 -20 -20 -20 1 -12 -20 -4 5 -20 -20 -1 0 -15 3 -19 -8 -19 -20 -20 -20 -20 -20 -20 -20 -20 -20 -20 -20 -20 -20 -20 -20 -20 -20 -20 -20
11 20 -5 -2 -20 -20 -20 -20 -20 -20 -20 -20 -20 -20 -20 -20 -20 -20 -18 -12 -19 -18 -20 -8 -20 0 2 -20 -20 -4 -20 -19 -0 -3 -20 -20 -20 -20 -20 -20 -20 -20 -20 -20 -20 -20 -20 -20 -20 -20 -20 -20 -20 -20
29 16 5 19 -11 -20 -20 -20 -20 -20 -20 -20 -20 -20 -20 -20 -3 -10 -20 -12 -12 -9 -20 -13 -20 -5 -11 -20 -20 -20 -15 -16 -20 -20 -20 -20 -20 -20 -20 -20 -20 -20 -20 -20 -20 -20 -20 -20 -20 -20 -20 -20 -20 -20
33 35 30 23 8 -20 -20 -20 -20 -20 -20 -20 -20 -20 -20 1 5 4 -14 -6 6 -12 -20 3 -8 -20 -20 -20 -20 -20 -20 -20 -20 -20 -20 -20 -20 -20 -20 -20 -20 -20 -20 -20 -20 -20 -20 -20 -20 -20 -20 -20 -20 -20
23 31 27 31 29 7 -20 -20 -20 -20 -20 -20 -20 -20 -20 -18 -2 -4 -1 -7 -18 13 21 -6 9 11 -19 -20 -20 -20 -20 -20 -20 -20 -20 -20 -20 -20 -20 -20 -20 -20 -20 -20 -20 -20 -20 -20 -20 -20 -20 -20 -20 -20
34 36 35 20 -0 -20 -20 -20 -20 -20 -20 -20 -20 -20 -20 -20 -1 -4 -7 -6 -17 -5 19 15 -20 -20 -20 -20 -20 -20 -20 -20 -20 -20 -20 -20 -20 -20 -20 -20 -20 -20 -20 -20 -20 -20 -20 -20 -20 -20 -20 -20 -20 -20
28 35 25 5 -20 -20 -20 -20 -20 -20 -20 -20 -20 -20 -20 -20 -16 -20 -20 -20 -20 -20 -20 -20 -20 -20 -20 -20 -20 -20 -20 -20 -20 -20 -20 -20 -20 -20 -20 -20 -20 -20 -20 -20 -20 -20 -20 -20 -20 -20 -20 -20 -20 -20
20 20 28 31 15 -15 -20 -20 -20 -20 -20 -20 -20 -20 -20 -20 -20 -20 -20 -20 -20 -2 1 -1 -13 -9 -20 -20 -20 -20 -20 -20 -20 -20 -20 -20 -20 -20 -20 -20 -20 -20 -20 -20 -20 -20 -20 -20 -20 -20 -20 -20 -20 -20
-2 15 -4 2 -14 -20 -20 -20 -20 -20 -20 -20 -20 -20 -20 -20 -20 -20 -20 -20 -20 -20 -20 -9 -1 -20 -20 -20 -20 -20 -20 -20 -20 -20 -20 -20 -20 -20 -20 -20 -20 -20 -20 -20 -20 -20 -20 -20 -20 -20 -20 -20 -6 -1
-7 -20 -20 -20 -20 -20 -15 -20 -20 -20 -20 -20 -20 -20 -20 -4 -12 -20 -20 -20 -20 -20 -20 -20 -20 -20 -20 -20 -20 -20 -20 -20 -20 -20 -20 -20 -20 -20 -20 -20 -20 -20 -20 -20 -20 -20 -20 -20 -20 -20 -7 3 -20 -0
-16 -20 -20 -20 -20 -20 -10 -20 -20 -20 -20 -20 -13 -20 -3 -11 -11 -20 -20 -9 -17 -20 -20 -20 -20 -20 -20 -20 -20 -20 -20 -20 -20 -20 -20 -20 -20 -20 -20 -20 -20 -20 -20 -20 -20 -20 -20 -20 -20 -16 -5 4 -20 -4
-20 -20 -20 -20 -20 -20 -20 -6 -2 -6 -20 -20 -20 -20 -20 -11 -18 -1 -5 -3 -4 -4 -15 -18 -6 -20 -20 -20 -20 -20 -20 -20 -20 -20 -20 -20 -20 -20 -20 -20 -20 -20 -20 -20 -20 -20 -20 -20 -20 -20 -11 -20 -19 0
-20 -20 -20 -20 -20 -20 -20 -0 2 -3 -20 -20 -20 -20 2 -20 1 -20 -18 -0 -3 -2 -2 -10 -20 -20 -19 -20 -20 -20 -20 -20 -20 -20 -20 -20 -20 -20 -20 -20 -20 -20 -20 -20 -20 -20 -20 -20 -20 -20 -20 -20 -1 -20
-20 -20 -20 -20 -20 -20 -20 -20 -20 -14 -20 -20 -20 -20 -20 -9 -18 -20 -20 -3 -1 -3 -3 -2 -1 -15 -20 -13 -20 -20 -20 -20 -20 -20 -20 -20 -20 -20 -20 -20 -20 -20 -20 -20 -20 -20 -20 -20 -20 -20 -20 -20 -20 -4
-20 -20 -20 -20 -14 6 -15 -19 -20 -20 -20 -20 -20 -20 -20 -20 -20 -20 -9 -20 -20 -20 -20 -20 -6 -5 -20 -10 -18 -20 -20 -20 -20 -20 -20 -20 -20 -20 -20 -20 -20 -20 -20 -20 -20 -20 -20 -20 -20 -20 -20 -11 -2 -20
-20 -20 -20 -20 -12 -20 6 -2 -20 -12 3 -12 -19 -15 -20 -20 -20 -20 -20 -20 -20 -20 -20 -20 -14 -20 -20 -20 -20 -20 -20 -20 -20 -20 -20 -20 -20 -20 -20 -20 -20 -20 -20 -20 -20 -20 -20 -20 -20 -20 -20 -18 -20 -20
-20 -20 -20 -20 -20 -20 -20 -19 -12 -20 -20 -20 -12 -20 -20 -20 -20 -20 -20 -20 -20 -20 -20 -20 -20 -20 -20 -20 -20 -20 -20 -5 -1 -20 -20 -20 -20 -20 -20 -20 -20 -20 -20 -20 -20 -20 -20 -20 -20 -20 -17 -12 -12 -20
-20 -20 -20 -20 -20 -20 -20 -20 -20 -20 -20 -20 -20 -20 -20 -17 -3 -10 -20 -20 -20 -20 -19 -20 -20 -20 -20 -20 -7 -20 -20 -20 -20 -18 0 -12 -9 -20 -20 -20 -20 -20 -20 -20 -20 -20 -20 -20 -20 -20 -20 -20 -20 -20
-20 -20 -20 -20 -20 -20 -20 -20 -20 -20 -20 -20 -18 -18 -20 -20 -3 -8 -20 -20 -20 -20 -20 -20 -20 -20 -20 -20 -20 -20 -4 -20 -20 -20 -20 -20 -20 -20 -20 -20 -20 -20 -20 -19 -20 -20 -20 -20 -20 -20 -20 -20 -20 -20
-20 -20 -20 -20 -20 -20 -20 -20 -19 -20 -20 -20 -20 -20 -20 -20 -20 -20 -20 -20 -20 -20 -20 -20 -20 -20 -20 -20 -19 -17 -17 -16 -18 -20 -20 -20 -20 -20 -20 -20 -20 -20 -18 -17 -16 -16 -14 -11 -11 -18 -20 -20 -20 -20
-20 -19 -20 -20 -20 -20 -20 -20 -20 -20 -20 -20 -20 -20 -20 -20 -20 -5 -6 -11 -15 -17 -20 -20 -20 -20 -20 -19 -19 -19 -19 -20 -20 -20 -20 -20 -20 -20 -20 -20 -20 -20 -19 -17 -16 -17 -17 -20 -20 -20 -20 -20 -20 -20

GFSWCAN_prec_radar_135.txt.gz
Reflectivity
25 31 17 14 1 -9 -20 -8 13 -20 -20 -19 -9 -2 -11 26 11 -12 -18 -16 -20 -20 -20 -9 -15 -20 -20 -20 -20 -20 -20 -20 -20 -2 -11 -20 -13 -20 -9 -7 1 -13 2 -4 4 6 10 -20 -20 -8 -9 -6 -10 -20
19 25 15 12 -11 -7 -20 14 -5 -20 -20 -19 -20 -14 -10 3 6 -20 -20 -20 -20 -20 -17 -20 -20 -20 -20 -20 -20 -20 -20 -20 -20 -18 -20 -20 -20 -20 -20 3 -20 3 -19 14 -17 4 -20 -20 -20 -20 -20 -20 -20 -12
21 32 14 13 5 9 -20 6 -20 -20 -20 -20 -14 2 -4 24 -14 -20 -20 -20 -20 -15 -20 -20 -20 -20 -20 -20 -20 -20 -20 -20 -20 -20 -20 -20 -5 -20 -4 8 -6 -9 -20 -20 -18 -20 -20 -20 -20 -20 -20 -20 -20 -20
-12 25 13 -18 25 -3 -7 6 -20 -20 -20 -18 6 -14 -8 -8 -16 -20 -20 -20 -20 -20 -7 -20 -20 -20 -20 -20 -20 -20 -20 -20 -20 -20 -20 -20 -20 -20 -14 -13 2 -20 -20 -6 -0 -12 -16 -14 -20 -20 -20 -20 -20 -20
27 26 4 -18 -20 -20 -18 12 -20 -20 -13 -10 10 -18 -20 -5 -20 -20 -20 -20 -20 -20 -11 4 -20 -20 -20 -20 -20 -20 -20 -20 -20 -20 -20 -20 -20 -20 -20 -20 4 -20 -16 -2 7 -20 -9 -20 -14 -20 -20 -20 -18 -20
26 33 -17 -20 -20 -13 -11 10 -20 -20 7 -1 5 -18 -20 -20 -20 -20 -5 -20 -20 -20 -16 8 3 6 -20 -20 -20 -20 -20 -20 -20 -20 -20 -20 -20 -20 -20 -20 -19 -20 -20 -20 -19 -20 -20 -20 -20 -20 -3 -20 -20 -20
8 20 7 -4 -4 1 15 -2 -17 0 0 2 14 -10 -20 -20 -20 -20 -19 -20 -20 -20 -14 4 11 11 4 -4 -19 -17 -20 -20 -20 -20 -20 -20 -20 -20 -20 -20 -20 -20 -20 -20 -20 -20 -19 -17 -18 -12 -20 -20 -20 -20
32 32 -11 7 -5 23 9 -20 -7 1 -20 -18 -17 -20 -20 -20 -20 -20 -20 -20 -20 -20 -20 5 13 7 -7 7 1 -9 0 -12 -19 -20 -20 -15 -20 -20 -6 -20 -20 -6 -20 -20 -13 -20 -20 -20 -20 -20 -20 -20 -20 -20
26 -16 -15 0 -6 8 -20 -19 5 -2 -20 -20 -20 -20 -20 -20 -20 -20 -20 -20 -20 -20 -17 5 -6 11 -14 12 7 1 -11 -1 -20 -15 1 -20 2 -4 -18 -20 -20 -20 -20 -10 -17 -20 -20 -20 -20 -20 -20 -20 -20 -20
-14 -11 -18 -20 -20 20 12 3 -14 -20 -20 -20 -20 -15 9 -6 -20 -20 -20 -20 -20 -20 -20 -9 -14 -0 7 9 7 2 -7 -19 -19 -17 -12 -2 1 -20 -20 -20 -20 -20 -20 -20 -20 -20 -20 -20 -20 -20 -20 -20 -20 -20
-1 -4 -0 20 21 14 14 9 -2 -7 -20 -20 -17 -1 -5 -20 -20 -20 1 -20 -20 -20 -20 -20 -9 5 7 -0 5 6 -2 -17 -1 -1 -15 -4 -20 -20 -20 -20 -20 -20 -20 -20 -20 -20 -20 -20 -20 -20 -20 -20 -20 -20
11 -7 1 3 6 7 -9 -20 -20 7 -20 -20 -17 -18 -20 -20 -20 -19 -20 -20 -20 -20 -17 3 1 4 11 -3 4 -0 -16 -9 7 -9 -20 -7 -19 -20 -20 -20 -20 -20 -20 -20 -20 -20 -20 -20 -20 -20 -20 -20 -20 -20
-17 -19 10 5 -20 -19 5 8 6 10 4 -10 -5 7 -20 -20 -20 -20 -20 -20 -20 -5 -16 5 -8 4 5 -6 -2 7 -4 8 1 -0 -19 -6 -20 -20 -20 -20 -20 -20 -20 -20 -20 -20 -20 -20 -20 -20 -20 -20 -20 -20
-6 -6 1 -18 -19 -20 -20 -11 -20 -15 -7 -3 -11 -20 -20 -20 -20 -17 -17 1 -2 0 3 -2 -2 7 7 0 -7 -0 9 2 -1 -1 -20 -20 -20 -20 -20 -20 -20 -20 -20 -20 -20 -20 -20 -20 -20 -20 -20 -20 -20 -20
15 4 4 -20 -20 -20 -20 -20 -20 -20 -20 -20 -20 -13 2 3 6 -6 -8 9 1 -6 -17 12 -10 8 5 -10 -5 -8 -2 -5 -8 -20 -2 -20 -20 -20 -20 -20 -20 -20 -20 -20 -20 -20 -20 -20 -20 -20 -20 -20 -20 -20
14 13 12 -20 -20 -20 -20 -20 -20 -20 -20 -20 -11 4 -13 10 13 12 10 6 -1 -0 14 22 -12 -5 -14 -6 -19 -14 -20 -20 -20 -18 -8 -20 -20 -20 -20 -20 -20 -20 -20 -20 -20 -20 -20 -20 -20 -20 -20 -20 -20 -20
11 28 2 -20 -20 -20 -20 -20 -20 -20 -20 -20 -3 -17 14 -1 5 -7 7 5 0 9 17 19 7 -13 -18 -20 -20 -20 -20 5 -16 -20 -20 -20 -20 -20 -20 -20 -20 -20 -20 -20 -20 -20 -20 -20 -20 -20 -20 -20 -20 -20
7 5 -14 3 -18 -20 -20 -20 -20 -20 -20 -0 8 -8 -19 6 11 -0 8 4 12 7 -13 -4 -13 -15 -3 -15 -0 -20 -20 -13 -20 -20 -20 -20 -20 -18 -15 -20 -20 -20 -20 -20 -20 -20 -20 -20 -20 -20 -20 -20 -20 -20
9 13 15 14 8 -5 -20 -20 -20 -20 -20 -17 -9 -13 -20 -17 -20 -8 -9 -11 -14 -20 2 -3 4 -5 -9 0 -15 18 -12 -20 -20 -20 -20 -20 -20 -20 -20 -20 -20 -20 -20 -20 -20 -20 -20 -20 -20 -20 -20 -20 -20 -20
16 6 -12 -20 -20 -20 -20 -20 -20 -20 -20 -20 -20 -20 -14 -3 -14 -20 -6 -20 -20 0 -12 -2 9 7 -10 -10 -9 -20 -13 -20 -20 -20 -20 -15 -6 -20 -15 -20 -20 -20 -20 -20 -20 -20 -20 -20 -20 -20 -20 -20 -20 -20
25 28 10 1 -15 -20 -20 -20 -20 -20 -20 -15 -20 -20 -2 -20 -20 -0 -1 -20 -20 -20 -2 5 -2 -20 -20 -20 -20 -20 -20 -20 -20 -20 -20 -20 -20 -20 -20 -20 -20 -20 -20 -20 -20 -20 -20 -20 -20 -20 -20 -20 -20 -6
1 12 25 15 -14 -20 -20 -20 -20 -20 -20 -20 -20 -20 -16 -3 -1 -3 -20 -10 -20 1 -17 -18 -20 -20 -20 -20 -20 -20 -20 -20 -20 -20 -20 -20 -20 -20 -20 -20 -20 -20 -20 -20 -20 -20 -20 -20 -20 -20 -20 -2 -1 -2
-17 -10 -13 -20 -20 -20 -19 -19 -11 -20 -20 -20 -20 -14 -2 -1 -3 -20 -5 -20 -11 -20 -20 -20 -20 -20 -20 -20 -20 -20 -20 -20 -20 -20 -20 -20 -20 -20 -20 -20 -20 -20 -20 -20 -20 -20 -20 -20 -20 -17 -20 -0 6 3
-20 -20 -20 -20 -20 -9 -19 -6 -20 -20 -20 -20 -9 -2 -15 0 -19 1 -10 -20 -16 -20 -20 -20 -20 -20 -20 -20 -20 -20 -20 -20 -20 -20 -20 -20 -20 -20 -20 -20 -20 -20 -20 -20 -20 -20 -20 0 -20 -6 2 -0 6 4
-20 -20 -20 -20 -20 -20 -19 -19 -4 -11 -2 -1 2 5 4 -1 -3 2 -17 -1 2 -1 -18 -6 -20 -20 -17 -11 -19 -18 -20 -20 -20 -20 -20 -20 -20 -20 -20 -20 -20 -20 -20 -5 -3 -5 0 0 1 1 1 0 -0 1
-20 -20 -10 -20 -20 -16 -20 -14 -13 -3 -6 9 9 -9 -2 4 1 9 -20 4 -1 -3 -3 -2 -1 -14 -17 -2 3 4 -4 -20 -20 -20 -20 -20 -20 -14 -15 -11 -14 -16 -20 -16 2 -2 -2 -2 1 -3 0 -1 1 2
-15 11 -10 -20 3 -4 3 -6 -8 11 16 12 13 2 3 3 7 -11 -1 -10 -4 -1 -3 -4 -3 -14 -5 -11 -0 -8 -20 -9 -18 -20 -20 -20 -20 -20 -17 -16 -13 -4 -20 -20 -6 -15 -9 -2 -0 2 2 3 3 -12
-1 6 16 -18 -10 -5 13 17 16 12 17 -9 -5 7 7 0 -12 -4 -4 -8 -3 -20 -7 -3 3 -6 1 -2 -1 1 1 -15 -20 -20 -20 -20 -20 -20 -20 -20 -20 -20 -20 -5 -1 -9 -18 3 2 2 4 4 4 8
-2 -11 0 -20 -2 1 10 17 14 -19 -20 -12 16 -11 -20 -20 -2 -3 -3 -2 -0 2 -3 -4 -0 -5 1 10 1 -3 3 2 6 7 5 9 10 0 -1 -1 0 1 -9 1 -20 -0 2 5 7 6 4 2 11 15
1 -3 -6 -3 -20 -2 -10 -11 -17 -3 -20 -18 -20 -20 -20 -2 1 -1 -1 -3 -3 -1 0 1 -0 -1 -1 -6 8 6 1 1 0 -2 2 2 6 4 -2 -15 -2 -4 -19 -20 2 -13 -18 -14 -20 -18 -4 1 3 8
-16 -0 -2 -4 4 -9 -4 -2 -3 -2 -1 -8 -1 -4 -20 -4 1 -1 -3 1 0 -2 -3 -2 -2 -2 -10 -15 -4 -20 -1 -8 -13 -14 -18 4 4 -1 -3 -3 -15 -14 -17 -6 7 7 0 0 -1 4 5 6 5 2
1 6 7 1 1 -4 -3 -1 4 6 0 3 -1 -4 -0 2 -19 -1 1 0 -1 -3 -19 -3 -8 -3 -1 -0 1 2 1 -4 -20 -8 -20 -10 -2 0 -0 -2 -3 1 1 1 3 2 -0 7 7 8 -1 -2 -2 -0
-6 -4 -4 1 -2 -0 -0 3 3 1 4 0 -3 -3 -9 -6 -20 2 1 3 3 2 -2 -3 -3 -3 -4 1 -2 -0 -11 2 -5 -20 -20 -20 -20 -17 -1 1 2 4 2 2 1 -0 -2 -3 -3 -4 -15 -17 -2 1

GFSWCAN_prec_radar_138.txt.gz
Reflectivity
18 1 17 24 18 12 9 13 5 13 -20 -20 -13 12 -1 21 13 21 16 26 25 20 2 19 19 16 13 -18 -20 -20 -20 -20 -20 -19 -20 -7 21 -17 -7 -20 -20 -15 0 -1 -7 7 5 -20 -20 -15 -14 -20 -20 -20
10 23 29 29 13 -4 -20 -7 12 -10 -20 -12 16 13 -2 19 11 3 20 30 31 2 -19 -15 2 31 7 -4 -20 -12 -1 -19 -20 -20 -3 12 -20 -20 2 -20 -20 6 8 18 -18 -13 -20 -20 -20 -20 -20 -20 -20 -20
18 18 29 16 15 10 -20 13 9 -20 -20 -20 -5 2 13 10 7 -16 20 -20 -11 -20 17 12 8 -20 -20 -20 -14 -20 -20 -20 -20 -20 -3 -19 -20 -20 -10 -12 -20 -20 -20 -20 -20 -20 -20 -20 -20 -20 -20 -20 -20 -20
18 30 27 15 9 -20 8 13 -10 -20 -20 -20 -15 10 15 21 -20 -3 21 -18 -20 -20 -18 -14 -20 -20 -20 -20 -20 -20 -20 -20 -20 -20 -20 -20 -20 -20 -19 -16 -5 -20 -20 -20 -20 -20 -20 -20 -20 -20 -20 -20 -20 -20
14 16 28 9 7 -3 3 -20 -20 -20 -20 -20 5 17 6 -20 -20 -6 -20 -8 22 -6 -2 6 -20 -20 -20 -20 -20 -20 -20 -20 -20 -20 -20 -20 -20 -20 -20 -15 -11 -20 -18 -20 -19 -20 -15 -20 -20 -20 -20 -20 -20 -20
17 32 19 7 19 25 11 -20 -20 -20 -20 -16 15 16 -20 -20 -20 -20 12 9 -19 -20 -14 7 6 -3 -20 -20 -20 -20 -20 -20 -20 -20 -20 -20 -20 -20 -20 -20 -20 -20 -20 -20 -20 -20 -20 -20 -20 -20 -20 -20 -20 -20
5 31 15 -19 -5 -10 13 1 -20 -16 -20 7 -15 -17 7 -20 -20 -20 -15 -20 -20 -20 -17 1 8 -13 -20 -20 -20 -20 -20 -20 -20 -20 -20 -20 -20 -20 -20 -5 -20 -20 -20 -20 -20 -20 -20 -20 -20 -20 -20 -20 -20 -20
30 24 -2 -20 -20 -4 3 -20 -13 -20 -15 9 -20 -2 -20 -20 -20 -20 -3 -20 -20 -16 -20 9 -13 1 -4 3 -7 -20 -20 -20 -20 -20 -20 -20 -20 -20 -12 -20 -20 -20 -20 -20 -20 -20 -20 -20 -20 -20 -20 -20 -20 -20
35 19 -19 -20 9 1 -20 -20 -8 5 -10 2 -19 -20 -20 -20 -20 -20 -18 -20 -20 -13 7 -4 -2 7 -5 9 -15 -9 -16 -14 -20 -17 -7 -20 -8 -20 -20 -20 -20 -20 -20 -20 -20 -20 -20 -20 -20 -20 -20 -20 -20 -20
31 23 19 1 7 -10 -20 8 14 8 -18 0 -20 -20 8 -20 -20 -20 -20 -20 -20 -20 -15 6 -20 -3 -12 12 8 2 -20 -5 -19 -20 -20 -20 4 -20 -20 -20 -20 -20 -20 -20 -20 -20 -20 -20 -20 -20 -20 -20 -20 -20
29 9 -20 -0 -20 -20 -20 -17 -20 -20 -20 -20 -4 -3 -20 -20 -20 -20 -20 -20 -20 -20 -14 13 -17 4 2 7 -8 5 6 2 -2 -4 -2 -5 -20 -20 -20 -20 -20 -20 -20 -20 -20 -20 -20 -20 -20 -20 -20 -20 -20 -20
4 -4 -20 -20 -20 -20 -20 -19 13 -18 -20 -20 -11 3 -9 -20 -20 -20 -20 -20 -20 -13 -18 9 8 -2 12 11 -5 -7 -15 -20 11 -20 -9 -20 -20 -20 -20 -20 -20 -20 -20 -20 -20 -20 -20 -20 -20 -20 -20 -20 -20 -20
-13 -11 -2 9 14 19 -3 -1 -10 4 8 -3 9 -3 -17 -20 -20 -20 -20 -20 -20 -20 -14 -6 -4 -20 1 -18 -6 3 -15 7 -17 -1 -20 8 -20 -20 -20 -20 -20 -20 -20 -20 -20 -20 -20 -20 -20 -20 -20 -20 -20 -20
-1 5 17 17 -17 -20 -20 -5 -4 -19 -20 -20 -20 -20 -20 -20 -19 14 17 -19 -20 -20 -0 -9 -18 7 1 -20 -20 -3 11 -8 -17 3 -19 -12 -20 -20 -20 -20 -20 -20 -20 -20 -20 -20 -20 -20 -20 -20 -20 -20 -20 -20
1 -17 -9 -20 -20 -20 -14 -1 -15 -20 -13 -20 -19 -11 -4 1 -13 -8 -7 -7 -17 7 7 -20 -20 3 -1 -20 -2 -9 -10 -3 -19 -6 15 -20 -20 -20 -20 -20 -20 -20 -20 -20 -20 -20 -20 -20 -20 -20 -20 -20 -20 -20
-20 -7 2 -20 -20 -20 -16 -19 -7 1 2 -18 -4 1 -2 3 4 9 -2 -13 -20 -20 18 18 -11 4 -19 -15 -3 -14 -11 -10 12 4 -20 -20 -20 -20 -20 -20 -20 -20 -20 -20 -20 -20 -20 -20 -20 -20 -20 -20 -20 -20
-2 13 -16 -20 -20 -20 -20 -1 -20 -20 -20 2 -8 7 16 -12 13 13 14 -13 -20 15 -5 12 12 -17 -19 -20 -20 -9 -7 18 -15 -20 -20 -20 -20 -20 -20 -20 -20 -20 -20 -20 -20 -20 -20 -20 -20 -20 -20 -20 -20 -20
-7 -12 -20 -20 -20 -20 -20 -20 -20 -20 -3 16 4 -16 -1 6 11 10 8 13 -5 20 13 15 12 10 -5 -18 8 18 4 -20 -20 -20 -20 -20 -20 -20 -20 -20 -20 -20 -20 -20 -20 -20 -20 -20 -20 -20 -20 -20 -20 -20
-13 -20 -20 -20 -20 -20 -20 -20 -20 -20 5 -1 -20 -20 -19 -9 -3 5 -8 -20 -15 -20 -5 -5 -11 17 1 10 14 11 -6 -3 -20 -20 -20 -20 -20 -19 -20 -20 -20 -20 -20 -20 -20 -20 -20 -20 -20 -20 -20 -20 -20 -20
-18 -20 -20 -20 -20 -20 -20 -20 -20 -20 -20 -4 -20 -10 -4 -3 -20 -20 -17 -20 -20 -20 -20 -20 14 -7 -10 -16 -13 -9 -14 -20 -20 -20 -20 -20 -20 -20 -20 -20 -20 -20 -20 -20 -20 -20 -20 -20 -20 -20 -20 -20 -20 -20
-13 -16 -20 -20 -20 -20 -20 -20 -20 -20 -20 -16 -20 -20 -4 -20 -2 -1 -6 -20 -20 -20 -0 -2 -1 -3 -20 -20 -20 -20 -20 -20 -20 -20 -20 -20 -20 -20 -20 -20 -20 -20 -20 -20 -20 -20 -20 -20 -20 -20 -20 -20 -20 -20
11 -20 -20 -20 -20 -20 -20 -20 -20 -20 -15 -20 -20 -20 -3 -4 -11 -14 -18 -1 -9 -14 -20 -15 -20 -17 -20 -20 -20 -9 -20 -20 -20 -20 -20 -20 -20 -20 -20 -20 -4 -3 -20 -20 -20 -19 -20 -20 -20 -20 -20 -20 -20 -18
22 24 9 -9 -20 -20 -20 -20 -20 -20 -20 -15 -20 -20 -19 -10 -4 -20 -19 -5 -10 -20 -20 -20 -20 -20 -20 -20 -20 -20 -20 -20 -20 -20 -20 -20 -20 -18 -20 -20 -20 -1 -20 -20 -20 -20 -16 -20 -20 -6 -20 -11 3 -4
-17 -6 -20 -20 -20 -11 -18 -1 -17 -20 -20 -20 -20 -20 -19 2 -20 -18 -4 3 -17 -20 -20 -20 -20 -20 -20 -20 -20 -20 -20 -20 -20 -20 -20 -20 -20 -20 -20 -20 -20 -20 -20 -9 -2 -20 -1 0 -20 -17 -13 -20 3 8
-20 -20 -20 -20 -20 -20 -20 -20 -20 -20 -20 -20 -20 -20 10 -9 -2 6 5 5 -0 -4 -20 -15 -20 -20 -20 -19 -20 5 -20 -20 -20 -20 -20 -20 -20 -19 -20 -20 -20 -20 -20 -20 -6 -20 -16 2 -19 -20 -20 7 8 6
-20 -20 -14 -20 -11 -20 -20 -20 -20 -20 -20 -9 -7 8 -5 6 6 10 -1 4 1 -16 -2 1 -17 -20 -18 -20 -15 -0 -12 -20 -20 -12 1 -20 -20 -20 -20 -20 -20 -20 -20 -20 -19 10 -17 -6 7 -13 -6 -12 5 10
-17 -20 -20 -20 3 -20 -9 5 -2 -7 7 -6 12 -0 -1 -2 10 -8 -20 -13 -20 -3 -5 -8 2 3 1 2 -9 -14 -6 -11 -10 -20 -20 -20 -20 -20 -20 -3 3 -8 -20 -20 -20 -9 10 1 8 8 -0 -19 8 6
0 4 5 9 -6 0 8 -8 16 10 12 10 12 15 15 -14 -19 -7 -7 -19 -0 -20 1 5 -10 -18 -12 8 -17 5 8 -10 -20 -20 -20 -20 -20 -20 -20 -20 -20 -20 -20 -20 1 0 8 10 14 9 7 10 9 10
-3 1 -0 6 -15 -9 -4 16 17 5 -9 -13 13 9 -20 -20 -2 -1 -2 0 4 4 -1 -0 -1 -7 -11 8 3 6 6 -1 -18 -16 13 16 11 -3 -20 -19 -1 1 1 5 -20 -20 -20 5 6 11 12 9 9 12
8 -17 -2 8 -4 -1 -2 -20 -6 -15 -20 -20 -20 -20 -20 -4 -0 -2 -3 -4 -5 -2 3 6 -2 -3 -2 -20 6 -1 -2 1 -2 -10 -13 3 6 -1 -2 -11 3 7 -12 3 11 -14 -20 -20 -20 -20 -20 -5 3 9
-18 -5 2 3 9 -6 -7 -9 -13 -11 1 -8 -11 -7 -20 -15 1 -2 -5 1 4 -6 -15 -6 0 -11 -6 -12 -20 -20 -14 -4 -13 -20 -20 -9 3 -0 -0 0 -1 -0 -1 6 4 16 -4 -8 8 2 4 10 9 -10
4 7 11 9 8 -6 -4 -4 9 7 -3 -2 -2 -8 -2 1 -5 -2 -1 -3 -0 -2 -19 -3 -4 -3 -0 3 3 4 6 -3 -20 -18 -20 -20 -19 -17 4 1 2 -19 6 7 3 -3 -3 -4 -3 -7 -15 -20 -16 -13
-5 -3 2 5 5 1 0 5 4 8 11 1 -3 -4 -20 -9 -20 2 -2 2 4 3 -1 -1 -2 1 -2 8 -4 2 4 8 -20 -20 -20 -20 -20 -20 -15 -7 7 4 -3 -3 -4 -2 -5 -20 -20 -20 -20 -12 -20 -20